When you browse on this site, cookies collect data to enhance your experience and personalize the content and advertising you see.
Visit our Privacy Policy to learn more. By continuing to use the site, you agree to this use of cookies and data.
  • In Hungary
  • List of Countries
  • For 7 days
  • Water Temperature
  • Satellite Maps
  • Weather Map
  • News
  • Weather Widgets
  • user-avatar
    Login

    Hourly Weather Cherry Hill

    Today, 19 March, Tuesday

    Time Temperature Precipitation Wind Pressure Humidity
    00:00 +4°C° 0 mm 1 mps 770 mmHg 44%
    01:00 +4°C° 0 mm 1 mps 770 mmHg 51%
    02:00 +3°C° 0 mm 1 mps 770 mmHg 49%
    03:00 +2°C° 0 mm 2 mps 770 mmHg 47%
    04:00 +2°C° 0 mm 2 mps 771 mmHg 45%
    05:00 +2°C° 0 mm 2 mps 771 mmHg 46%
    06:00 +2°C° 0 mm 2 mps 771 mmHg 46%
    07:00 +3°C° 0 mm 1 mps 772 mmHg 48%
    08:00 +5°C° 0 mm 1 mps 772 mmHg 43%
    09:00 +6°C° 0 mm 1 mps 772 mmHg 37%
    10:00 +8°C° 0 mm 1 mps 772 mmHg 32%
    11:00 +9°C° 0 mm 1 mps 772 mmHg 28%
    12:00 +10°C° 0 mm 1 mps 772 mmHg 25%
    13:00 +11°C° 0 mm 1 mps 771 mmHg 21%
    14:00 +11°C° 0 mm 1 mps 771 mmHg 21%
    15:00 +10°C° 0 mm 2 mps 771 mmHg 21%
    16:00 +10°C° 0 mm 2 mps 770 mmHg 21%
    17:00 +9°C° 0 mm 2 mps 771 mmHg 24%
    18:00 +9°C° 0 mm 1 mps 771 mmHg 27%
    19:00 +8°C° 0 mm 1 mps 771 mmHg 30%
    20:00 +7°C° 0 mm 1 mps 771 mmHg 35%
    21:00 +6°C° 0 mm 1 mps 771 mmHg 39%
    22:00 +5°C° 0 mm 2 mps 771 mmHg 43%
    23:00 +4°C° 0 mm 2 mps 771 mmHg 46%

    Tomorrow, 20 March, Wednesday

    Time Temperature Precipitation Wind Pressure Humidity
    00:00 +4°C° 0 mm 2 mps 771 mmHg 48%
    01:00 +3°C° 0 mm 2 mps 771 mmHg 51%
    02:00 +3°C° 0 mm 2 mps 771 mmHg 53%
    03:00 +4°C° 0 mm 1 mps 771 mmHg 55%
    04:00 +3°C° 0 mm 1 mps 771 mmHg 57%
    05:00 +3°C° 0 mm 1 mps 771 mmHg 57%
    06:00 +3°C° 0 mm 1 mps 771 mmHg 57%
    07:00 +4°C° 0 mm 1 mps 771 mmHg 57%
    08:00 +5°C° 0 mm 1 mps 771 mmHg 49%
    09:00 +6°C° 0 mm 2 mps 771 mmHg 42%
    10:00 +8°C° 0 mm 3 mps 771 mmHg 34%
    11:00 +9°C° 0 mm 3 mps 770 mmHg 32%
    12:00 +10°C° 0 mm 3 mps 770 mmHg 30%
    13:00 +11°C° 0 mm 3 mps 769 mmHg 28%
    14:00 +11°C° 0 mm 4 mps 769 mmHg 29%
    15:00 +11°C° 0 mm 4 mps 768 mmHg 31%
    16:00 +11°C° 0 mm 4 mps 767 mmHg 32%
    17:00 +10°C° 0 mm 4 mps 767 mmHg 39%
    18:00 +9°C° 0 mm 3 mps 767 mmHg 45%
    19:00 +8°C° 0 mm 3 mps 767 mmHg 52%
    20:00 +7°C° 0 mm 3 mps 767 mmHg 56%
    21:00 +7°C° 0 mm 2 mps 767 mmHg 61%
    22:00 +6°C° 0 mm 2 mps 767 mmHg 66%
    23:00 +6°C° 0 mm 2 mps 766 mmHg 71%

    Day after tomorrow, 21 March, Thursday

    Time Temperature Precipitation Wind Pressure Humidity
    00:00 +6°C° 0 mm 2 mps 766 mmHg 77%
    01:00 +6°C° 0 mm 2 mps 766 mmHg 82%
    02:00 +6°C° 0 mm 2 mps 765 mmHg 84%
    03:00 +7°C° 0 mm 1 mps 764 mmHg 87%
    04:00 +7°C° 0 mm 1 mps 764 mmHg 90%
    05:00 +7°C° 0 mm 1 mps 763 mmHg 90%
    06:00 +7°C° 0 mm 1 mps 763 mmHg 90%
    07:00 +7°C° 0 mm 2 mps 763 mmHg 91%
    08:00 +8°C° 0.4 mm 2 mps 762 mmHg 89%
    09:00 +9°C° 0.4 mm 2 mps 762 mmHg 88%
    10:00 +10°C° 0.4 mm 2 mps 761 mmHg 86%
    11:00 +10°C° 1.1 mm 2 mps 760 mmHg 88%
    12:00 +10°C° 1.1 mm 2 mps 759 mmHg 90%
    13:00 +10°C° 1.1 mm 2 mps 758 mmHg 92%
    14:00 +10°C° 0.7 mm 2 mps 757 mmHg 92%
    15:00 +11°C° 0.7 mm 3 mps 756 mmHg 92%
    16:00 +11°C° 0.7 mm 3 mps 755 mmHg 92%
    17:00 +12°C° 1.8 mm 2 mps 754 mmHg 94%
    18:00 +10°C° 1.8 mm 2 mps 753 mmHg 96%
    19:00 +11°C° 1.8 mm 1 mps 752 mmHg 98%
    20:00 +10°C° 0.6 mm 2 mps 752 mmHg 97%
    21:00 +9°C° 0.6 mm 2 mps 751 mmHg 96%
    22:00 +9°C° 0.6 mm 3 mps 750 mmHg 96%
    23:00 +8°C° 0 mm 4 mps 750 mmHg 91%

    22 March, Friday

    Time Temperature Precipitation Wind Pressure Humidity
    00:00 +7°C° 0 mm 4 mps 750 mmHg 86%
    01:00 +7°C° 0 mm 5 mps 749 mmHg 81%
    02:00 +7°C° 0.2 mm 5 mps 749 mmHg 80%
    03:00 +7°C° 0.2 mm 5 mps 749 mmHg 79%
    04:00 +5°C° 0.2 mm 6 mps 749 mmHg 79%
    05:00 +5°C° 0 mm 6 mps 749 mmHg 76%
    06:00 +4°C° 0 mm 6 mps 749 mmHg 74%
    07:00 +4°C° 0 mm 6 mps 749 mmHg 71%
    08:00 +5°C° 0 mm 6 mps 749 mmHg 65%
    09:00 +7°C° 0 mm 6 mps 749 mmHg 58%
    10:00 +6°C° 0 mm 7 mps 749 mmHg 51%
    11:00 +8°C° 0 mm 7 mps 748 mmHg 51%
    12:00 +8°C° 0 mm 7 mps 748 mmHg 51%
    13:00 +9°C° 0 mm 7 mps 748 mmHg 51%
    14:00 +9°C° 0.1 mm 8 mps 747 mmHg 48%
    15:00 +9°C° 0.1 mm 8 mps 747 mmHg 44%
    16:00 +8°C° 0.1 mm 9 mps 747 mmHg 40%
    17:00 +7°C° 0.1 mm 8 mps 748 mmHg 43%
    18:00 +6°C° 0.1 mm 8 mps 749 mmHg 46%
    19:00 +5°C° 0.1 mm 8 mps 750 mmHg 49%
    20:00 +4°C° 0 mm 8 mps 750 mmHg 49%
    21:00 +2°C° 0 mm 8 mps 751 mmHg 50%
    22:00 +1°C° 0 mm 8 mps 751 mmHg 50%
    23:00 0°C° 0 mm 8 mps 752 mmHg 50%

    23 March, Saturday

    Time Temperature Precipitation Wind Pressure Humidity
    00:00 0°C° 0 mm 7 mps 752 mmHg 51%
    01:00 -1°C° 0 mm 7 mps 752 mmHg 51%
    02:00 -1°C° 0 mm 7 mps 752 mmHg 51%
    03:00 -2°C° 0 mm 7 mps 753 mmHg 51%
    04:00 -2°C° 0 mm 7 mps 753 mmHg 51%
    05:00 -2°C° 0 mm 7 mps 754 mmHg 50%
    06:00 -2°C° 0 mm 7 mps 754 mmHg 49%
    07:00 -2°C° 0 mm 7 mps 755 mmHg 48%
    08:00 -1°C° 0 mm 7 mps 756 mmHg 42%
    09:00 0°C° 0 mm 8 mps 756 mmHg 36%
    10:00 +1°C° 0 mm 8 mps 757 mmHg 30%
    11:00 +2°C° 0 mm 8 mps 757 mmHg 28%
    12:00 +5°C° 0 mm 8 mps 757 mmHg 25%
    13:00 +6°C° 0 mm 8 mps 757 mmHg 22%
    14:00 +6°C° 0 mm 7 mps 757 mmHg 22%
    15:00 +8°C° 0 mm 7 mps 758 mmHg 21%
    16:00 +8°C° 0 mm 7 mps 758 mmHg 21%
    17:00 +6°C° 0 mm 7 mps 759 mmHg 23%
    18:00 +5°C° 0 mm 6 mps 760 mmHg 25%
    19:00 +5°C° 0 mm 5 mps 761 mmHg 27%
    20:00 +5°C° 0 mm 5 mps 761 mmHg 30%
    21:00 +3°C° 0 mm 5 mps 762 mmHg 33%
    22:00 +2°C° 0 mm 5 mps 763 mmHg 36%
    23:00 +2°C° 0 mm 5 mps 763 mmHg 40%

    24 March, Sunday

    Time Temperature Precipitation Wind Pressure Humidity
    00:00 +1°C° 0 mm 4 mps 763 mmHg 43%
    01:00 0°C° 0 mm 4 mps 764 mmHg 47%
    02:00 0°C° 0 mm 4 mps 764 mmHg 46%
    03:00 0°C° 0 mm 4 mps 764 mmHg 45%
    04:00 -1°C° 0 mm 4 mps 765 mmHg 44%
    05:00 0°C° 0 mm 3 mps 765 mmHg 43%
    06:00 +1°C° 0 mm 3 mps 765 mmHg 43%
    07:00 +1°C° 0 mm 3 mps 765 mmHg 42%
    08:00 +3°C° 0 mm 3 mps 765 mmHg 38%
    09:00 +5°C° 0 mm 3 mps 765 mmHg 35%
    10:00 +7°C° 0 mm 4 mps 765 mmHg 31%
    11:00 +10°C° 0 mm 4 mps 764 mmHg 30%
    12:00 +11°C° 0 mm 4 mps 764 mmHg 29%
    13:00 +13°C° 0 mm 4 mps 763 mmHg 28%
    14:00 +14°C° 0 mm 4 mps 762 mmHg 28%
    15:00 +14°C° 0 mm 5 mps 762 mmHg 28%
    16:00 +15°C° 0 mm 5 mps 761 mmHg 29%
    17:00 +14°C° 0 mm 4 mps 761 mmHg 32%
    18:00 +13°C° 0 mm 4 mps 761 mmHg 35%
    19:00 +12°C° 0 mm 4 mps 761 mmHg 39%
    20:00 +11°C° 0 mm 4 mps 760 mmHg 42%
    21:00 +10°C° 0 mm 4 mps 760 mmHg 46%
    22:00 +10°C° 0 mm 4 mps 760 mmHg 49%
    23:00 +10°C° 0 mm 4 mps 759 mmHg 54%
    Show more